Weather History for Ireland West Airport Knock, Ireland

Change the Weather History Date:

Monday, April 1, 2013

  Actual Average Record
Temperature  
Mean Temperature 35 °F -  
Max Temperature 40 °F - - ()
Min Temperature 30 °F - - ()
Degree Days  
Heating Degree Days 30    
Moisture  
Dew Point 25 °F    
Average Humidity 66    
Maximum Humidity 86    
Minimum Humidity 40    
Precipitation  
Precipitation 0.00 in - - ()
Sea Level Pressure  
Sea Level Pressure 29.78 in    
Wind  
Wind Speed 15 mph ()    
Max Wind Speed 22 mph    
Max Gust Speed 38 mph    
Visibility 6.5 miles    
Events      
T = Trace of Precipitation, MM = Missing Value Source: Averaged Metar Reports

Daily Weather History Graph

Daily Weather History Graph

Search for Another Location

Airport:

Trip Planner

Search our weather history database for the weather conditions in past years. The results will help you decide how hot, cold, wet, or windy it might be!

Date:

Astronomy

Apr. 01, 2013 Rise Set
Actual Time 7:07 AM IST 8:11 PM IST
Civil Twilight 6:32 AM IST 8:47 PM IST
Nautical Twilight 5:48 AM IST 9:31 PM IST
Astronomical Twilight 5:01 AM IST 10:19 PM IST
Moon 1:45 AM IST (4/1) 10:00 AM IST (4/1)
Length of Visible Light 14h 15m
Length of Day
13h 03m
Waning Gibbous, 69% of the Moon is Illuminated
Apr 1
Waning Gibbous
Apr 3
Last Quarter
Apr 10
New
Apr 18
First Quarter
Apr 25
Full

Hourly Weather History & Observations

Time (IST) Temp. Windchill Dew Point Humidity Pressure Visibility Wind Dir Wind Speed Gust Speed Precip Events Conditions
1:00 AM 33 °F - 27 °F 70% 29.78 in - ESE 15.7 mph - -  
6:00 AM 30.2 °F 19.3 °F 26.6 °F 86% 29.74 in 6.2 mi ESE 15.0 mph - N/A   Partly Cloudy
6:30 AM 30.2 °F 19.3 °F 26.6 °F 86% 29.74 in 6.2 mi ESE 15.0 mph - N/A   Partly Cloudy
7:00 AM 30 °F - 26 °F 80% 29.79 in 15 mi ESE 15.7 mph - -   Scattered Clouds
7:00 AM 30.2 °F 18.9 °F 26.6 °F 86% 29.74 in 6.2 mi ESE 16.1 mph - N/A   Partly Cloudy
7:30 AM 30.2 °F 18.9 °F 24.8 °F 80% 29.74 in 6.2 mi ESE 16.1 mph - N/A   Mostly Cloudy
8:00 AM 30.2 °F 19.8 °F 24.8 °F 80% 29.74 in 6.2 mi ESE 13.8 mph 25.3 mph N/A   Mostly Cloudy
8:30 AM 32.0 °F 22.1 °F 24.8 °F 75% 29.74 in 6.2 mi ESE 13.8 mph - N/A   Mostly Cloudy
9:00 AM 33.8 °F 23.5 °F 24.8 °F 70% 29.74 in 6.2 mi ESE 16.1 mph - N/A   Mostly Cloudy
9:30 AM 33.8 °F 24.3 °F 24.8 °F 70% 29.77 in 6.2 mi ESE 13.8 mph - N/A   Mostly Cloudy
10:00 AM 33.8 °F 23.9 °F 24.8 °F 70% 29.77 in 6.2 mi ESE 15.0 mph 27.6 mph N/A   Mostly Cloudy
10:30 AM 35.6 °F 25.5 °F 24.8 °F 65% 29.77 in 6.2 mi ESE 17.3 mph 29.9 mph N/A   Mostly Cloudy
11:00 AM 35.6 °F 24.8 °F 24.8 °F 65% 29.77 in 6.2 mi SE 19.6 mph 31.1 mph N/A   Mostly Cloudy
11:30 AM 35.6 °F 24.2 °F 24.8 °F 65% 29.77 in 6.2 mi SE 21.9 mph 38.0 mph N/A   Mostly Cloudy
12:00 PM 37.4 °F 26.6 °F 24.8 °F 60% 29.77 in 6.2 mi SE 21.9 mph 36.8 mph N/A   Mostly Cloudy
12:30 PM 37.4 °F 26.6 °F 24.8 °F 60% 29.77 in 6.2 mi ESE 21.9 mph 34.5 mph N/A   Mostly Cloudy
1:00 PM 40 °F - 24 °F 40% 29.81 in 22 mi ESE 20.1 mph - -   Mostly Cloudy
1:00 PM 39.2 °F 29.3 °F 24.8 °F 56% 29.77 in 6.2 mi ESE 20.7 mph 32.2 mph N/A   Mostly Cloudy
1:30 PM 37.4 °F 26.6 °F 24.8 °F 60% 29.77 in 6.2 mi SE 21.9 mph - N/A   Mostly Cloudy
2:00 PM 39.2 °F 30.5 °F 24.8 °F 56% 29.77 in 6.2 mi ESE 16.1 mph 29.9 mph N/A   Mostly Cloudy
2:30 PM 39.2 °F 29.0 °F 26.6 °F 61% 29.77 in 6.2 mi ESE 21.9 mph 33.4 mph N/A   Mostly Cloudy
3:00 PM 37.4 °F 26.6 °F 24.8 °F 60% 29.80 in 6.2 mi ESE 21.9 mph - N/A   Mostly Cloudy
3:30 PM 37.4 °F 26.9 °F 24.8 °F 60% 29.80 in 6.2 mi SE 20.7 mph 35.7 mph N/A   Mostly Cloudy
4:00 PM 37.4 °F 27.5 °F 24.8 °F 60% 29.80 in 6.2 mi ESE 18.4 mph 36.8 mph N/A   Mostly Cloudy
4:30 PM 37.4 °F 26.6 °F 24.8 °F 60% 29.80 in 6.2 mi SE 21.9 mph 33.4 mph N/A   Mostly Cloudy
5:00 PM 37.4 °F 27.2 °F 24.8 °F 60% 29.80 in 6.2 mi ESE 19.6 mph 38.0 mph N/A   Mostly Cloudy
5:30 PM 37.4 °F 26.9 °F 24.8 °F 60% 29.80 in 6.2 mi SE 20.7 mph 38.0 mph N/A   Mostly Cloudy
6:00 PM 37.4 °F 28.2 °F 24.8 °F 60% 29.80 in 6.2 mi ESE 16.1 mph - N/A   Mostly Cloudy
7:00 PM 37 °F - 25 °F 49% 29.86 in 25 mi SE 15.7 mph - -   Mostly Cloudy